[Iaude] MPEC U62: 2016 TV93 [a=2.93,e=0.62,i=2.0,H=24.3]

mpec at si.edu mpec at si.edu
Mon Oct 24 18:25:44 EDT 2016


M.P.E.C. 2016-U62                                Issued 2016 Oct. 24, 22:21 UT
 
     The Minor Planet Electronic Circulars contain information on unusual
         minor planets and routine data on comets.  They are published
    on behalf of Division F of the International Astronomical Union by the
          Minor Planet Center, Smithsonian Astrophysical Observatory,
                          Cambridge, MA 02138, U.S.A.

             Prepared using the Tamkin Foundation Computer Network

                              MPC at CFA.HARVARD.EDU
            URL http://www.minorplanetcenter.net/    ISSN 1523-6714


                                   2016 TV93
 
Observations:
     K16T93V* C2016 10 12.57199 02 59 00.763+12 21 57.26         21.1 wLEU062F51
     K16T93V  C2016 10 12.58363 02 59 05.457+12 22 04.55         21.6 wLEU062F51
     K16T93V  C2016 10 12.59523 02 59 10.158+12 22 11.20         21.3 wLEU062F51
     K16T93V  C2016 10 12.60682 02 59 14.882+12 22 17.87         21.5 wLEU062F51
     K16T93V  C2016 10 13.48631 03 05 30.97 +12 31 07.1          21.3 RoEU062926
     K16T93V  C2016 10 13.49279 03 05 33.67 +12 31 10.9          21.5 RoEU062926
     K16T93V  C2016 10 13.49927 03 05 36.28 +12 31 14.3          21.1 RoEU062926
     K16T93V  C2016 10 24.48841 04 21 06.06 +13 35 16.6          21.8 RoEU062291
     K16T93V  C2016 10 24.49065 04 21 06.90 +13 35 16.9                oEU062291
     K16T93V  C2016 10 24.49288 04 21 07.61 +13 35 16.4                oEU062291
 
Observer details:
291 LPL/Spacewatch II.  Observer R. A. Mastaler.  1.8-m f/2.7 reflector + CCD.
926 Tenagra II Observatory.  Observers M. Schwartz, P. R. Holvorcem.  Measurer
    M. Schwartz.  0.81-m f/7 Ritchey-Chretien + CCD.
F51 Pan-STARRS 1, Haleakala.  Observers B. Gibson, T. Goggia, S. Kahale,
    A. Schultz, M. Willman.  Measurers K. Chambers, S. Chastel, L. Denneau,
    H. Flewelling, M. Huber, E. Lilly, E. Magnier, R. Wainscoat, C. Waters,
    R. Weryk.  1.8-m Ritchey-Chretien + CCD.
 
Orbital elements:
2016 TV93                                                Earth MOID = 0.1156 AU
Epoch 2016 July 31.0 TT = JDT 2457600.5                 MPC
M 343.01026              (2000.0)            P               Q
n   0.19675311     Peri.  208.84375     +0.80728043     -0.59015046
a   2.9276668      Node   187.32900     +0.54809017     +0.75256272
e   0.6212769      Incl.    2.04637     +0.21885037     +0.29218450
P   5.01           H   24.3           G   0.15           U   8
Residuals in seconds of arc
161012 F51  0.1-  0.1-    161013 926  0.1-  0.2-    161024 291  0.5+  0.2+
161012 F51  0.1-  0.2+    161013 926  0.5+  0.0     161024 291  0.7-  0.4-
161012 F51  0.0   0.0     161013 926  0.3-  0.1-
161012 F51  0.3+  0.1-    161024 291  0.2-  0.1+

Ephemeris:
2016 TV93                a,e,i = 2.93, 0.62, 2                   q = 1.1088
Date    TT    R. A. (2000) Decl.     Delta      r     Elong.  Phase     V
2016 09 24    01 08 08.7 +08 06 24   0.1830  1.1788   162.3    15.0    21.8
...
2016 10 09    02 34 03.7 +11 40 26   0.1405  1.1285   155.8    21.3    21.3
...
2016 10 17    03 30 38.2 +13 01 55   0.1336  1.1140   149.7    26.8    21.4
...
2016 10 23    04 11 40.2 +13 32 04   0.1353  1.1092   145.6    30.5    21.5
2016 10 24    04 18 03.9 +13 34 37   0.1361  1.1089   145.0    31.0    21.5
2016 10 25    04 24 17.7 +13 36 34   0.1371  1.1088   144.4    31.4    21.6
...
2016 10 31    04 57 45.0 +13 38 24   0.1453  1.1111   142.1    33.2    21.7
...
2016 11 08    05 31 08.5 +13 29 00   0.1620  1.1225   141.8    33.1    22.0
...
2016 11 23    06 04 15.6 +13 29 01   0.2057  1.1676   148.4    26.3    22.4

A. U. Tomatic                (C) Copyright 2016 MPC           M.P.E.C. 2016-U62




More information about the Iaude mailing list